TimeEDT,TemperatureF,Dew PointF,Humidity,Sea Level PressureIn,VisibilityMPH,Wind Direction,Wind SpeedMPH,Gust SpeedMPH,PrecipitationIn,Events,Conditions,WindDirDegrees,DateUTC
12:57 AM,64.9,63.0,93,30.05,10.0,Calm,Calm,-,N/A,,Clear,0,2012-10-06 04:57:00
1:57 AM,64.0,62.1,93,30.04,9.0,Calm,Calm,-,N/A,,Clear,0,2012-10-06 05:57:00
2:57 AM,63.0,61.0,93,30.01,8.0,Calm,Calm,-,0.01,,Clear,0,2012-10-06 06:57:00
3:57 AM,63.0,61.0,93,30.01,8.0,Calm,Calm,-,N/A,,Clear,0,2012-10-06 07:57:00
4:57 AM,64.0,62.1,93,30.00,8.0,NW,5.8,-,N/A,,Clear,310,2012-10-06 08:57:00
5:57 AM,62.1,60.1,93,30.01,10.0,NW,3.5,-,N/A,,Clear,310,2012-10-06 09:57:00
6:57 AM,60.1,59.0,96,30.01,8.0,Calm,Calm,-,N/A,,Clear,0,2012-10-06 10:57:00
7:57 AM,63.0,61.0,93,30.01,8.0,Calm,Calm,-,N/A,,Unknown,0,2012-10-06 11:57:00
8:57 AM,70.0,64.0,81,30.01,10.0,NW,3.5,-,N/A,,Unknown,310,2012-10-06 12:57:00
10:57 AM,77.0,59.0,54,30.01,10.0,SW,5.8,-,N/A,,Clear,230,2012-10-06 14:57:00
11:57 AM,78.1,59.0,52,30.00,10.0,SSW,5.8,-,N/A,,Clear,210,2012-10-06 15:57:00
12:57 PM,80.1,59.0,48,29.97,10.0,SSW,10.4,-,N/A,,Clear,200,2012-10-06 16:57:00
1:57 PM,79.0,61.0,54,29.94,10.0,South,10.4,-,N/A,,Clear,190,2012-10-06 17:57:00
3:57 PM,79.0,62.1,56,29.92,10.0,South,11.5,-,N/A,,Clear,190,2012-10-06 19:57:00
4:57 PM,77.0,64.0,64,29.92,10.0,SSW,9.2,-,N/A,,Clear,210,2012-10-06 20:57:00
5:57 PM,75.9,64.0,67,29.93,10.0,SW,6.9,-,N/A,,Clear,220,2012-10-06 21:57:00
6:57 PM,75.0,64.0,69,29.94,10.0,SW,5.8,-,N/A,,Clear,220,2012-10-06 22:57:00
7:57 PM,75.0,64.9,71,29.96,10.0,SW,4.6,-,N/A,,Clear,220,2012-10-06 23:57:00
8:57 PM,75.0,64.0,69,29.97,10.0,SSW,6.9,-,N/A,,Clear,210,2012-10-07 00:57:00
10:57 PM,73.9,64.9,73,29.98,10.0,SW,4.6,-,N/A,,Clear,230,2012-10-07 02:57:00